Theta_e
330 332 334 334 328 334 339 344 349 346 344 343 352 356 354 352 351 348 346 345 344 344 343 342 343 343 345 345 347 346 347 351 351 349 351 348 350 351 351 349 350 351 351 351
328 329 330 331 328 325 326 327 334 343 340 338 352 359 356 351 351 346 349 347 346 345 343 343 344 345 345 348 347 347 348 350 350 347 345 349 349 352 351 351 351 352 352 352
326 326 327 326 323 324 323 323 326 332 341 340 352 354 347 343 341 346 346 348 347 346 345 344 344 344 344 345 348 347 347 348 347 345 342 352 354 352 350 350 349 351 352 352
324 325 326 324 324 323 322 326 327 327 326 333 337 358 350 346 345 340 343 349 349 347 346 344 343 342 342 347 347 345 348 347 347 345 347 350 352 351 349 344 343 339 349 353
323 325 326 324 325 325 325 326 327 327 325 325 328 349 350 343 342 342 340 345 350 348 347 346 344 342 342 348 350 346 350 348 349 352 351 350 353 351 350 349 344 347 349 350
323 325 326 325 324 324 324 324 327 324 323 326 328 343 342 346 343 344 343 344 344 348 347 346 344 342 343 348 352 348 349 350 348 347 351 354 353 354 351 346 337 343 351 352
323 324 324 326 325 326 327 325 326 330 328 333 336 337 336 341 341 341 338 336 342 347 347 346 344 342 342 349 351 351 350 352 349 347 346 353 357 355 354 352 349 350 350 352
329 325 325 325 329 328 327 326 325 329 328 328 331 335 335 336 335 336 338 340 341 339 348 347 345 343 343 347 349 355 350 356 355 353 353 351 352 357 356 354 350 352 352 352
328 331 330 329 329 328 327 325 326 324 325 329 335 334 333 335 334 344 345 349 349 349 348 347 345 345 344 345 349 353 355 353 355 356 358 357 354 352 354 358 353 353 354 352
327 327 330 328 329 328 328 328 325 323 329 332 339 341 341 339 343 347 348 352 352 351 348 348 346 346 344 346 347 350 355 356 355 355 356 361 361 358 355 358 358 357 358 353
327 327 330 329 329 330 329 326 323 322 327 331 334 341 340 343 344 348 351 353 354 351 351 346 350 349 345 347 348 350 354 356 358 359 356 357 361 362 361 358 358 357 358 357
330 329 328 328 328 329 330 326 323 323 326 325 329 341 336 337 346 352 354 355 353 348 347 342 345 344 349 344 346 348 358 358 358 359 362 360 361 363 364 362 357 363 359 357
326 329 323 324 328 328 331 330 329 325 323 327 330 338 337 342 340 338 355 356 345 344 346 339 344 341 345 346 348 346 347 359 360 360 361 362 362 362 362 363 361 358 361 360
325 324 323 322 326 328 328 328 328 324 324 324 327 337 337 340 341 346 348 355 353 344 343 344 339 343 346 346 339 346 340 346 361 360 359 359 362 361 361 361 362 358 362 359
327 328 330 329 328 329 328 328 327 326 324 325 323 326 334 334 334 343 343 348 350 354 346 350 344 341 340 340 339 338 337 348 360 359 360 360 362 361 360 359 360 360 359 361
327 328 331 332 330 329 330 330 329 329 329 326 324 323 324 325 341 343 342 343 349 349 357 354 344 343 340 338 334 336 348 359 359 360 360 358 358 358 351 357 364 363 359 362
326 327 330 331 331 331 331 331 330 327 325 324 324 325 327 328 346 347 347 343 348 352 355 357 357 351 349 354 360 362 355 356 356 356 356 355 349 344 338 340 355 359 361 361
325 329 331 331 332 334 330 329 329 328 328 330 336 340 341 340 346 345 345 349 347 345 339 339 343 354 358 360 361 362 347 344 348 350 344 341 338 339 336 341 351 356 355 356
326 329 331 331 332 331 332 332 331 331 339 337 338 338 337 338 336 344 342 344 342 341 339 338 345 348 355 346 354 357 354 346 344 343 340 340 339 336 338 340 339 340 337 341
327 327 329 331 335 335 334 332 330 330 338 335 333 333 333 331 332 336 341 339 343 336 336 342 344 345 345 346 344 347 351 349 343 339 338 337 338 338 336 337 337 334 340 350
333 334 332 332 334 332 334 331 330 333 338 333 332 331 331 331 330 337 339 336 340 337 340 340 343 345 341 333 334 340 339 347 344 348 352 338 334 334 348 352 353 353 354 355
341 341 339 337 337 340 334 334 338 335 331 331 331 330 330 328 328 328 331 336 334 334 336 332 342 344 341 339 334 331 340 345 348 349 351 355 355 352 350 349 346 344 341 344
337 334 335 336 340 335 332 332 330 330 331 332 330 329 329 328 328 328 328 328 328 329 330 330 331 339 342 346 340 336 339 343 346 346 345 344 347 350 346 347 349 345 344 341
334 336 335 334 335 335 333 332 332 331 331 330 330 330 329 328 327 328 327 327 328 330 330 332 332 333 338 339 337 337 335 331 340 332 330 331 330 350 353 350 348 348 349 348
332 332 336 337 336 335 335 333 332 332 331 331 329 329 328 328 329 328 327 327 329 331 328 328 331 332 332 334 341 338 334 340 337 333 332 334 342 344 345 345 344 347 345 348
330 333 335 338 335 338 335 332 331 332 331 330 329 329 329 328 327 327 327 329 329 329 329 328 325 326 328 330 331 337 340 342 341 333 333 343 338 339 338 336 335 336 339 335
Wind_Speed
10 3 8 13 7 5 8 14 11 11 12 18 13 17 16 21 9 15 19 20 21 22 24 33 32 34 30 29 39 37 33 34 30 26 23 20 16 12 16 15 13 16 12 13
7 9 13 9 5 8 8 9 7 9 15 3 16 15 21 14 7 9 14 21 23 21 20 25 33 32 29 35 41 39 38 36 33 29 28 23 19 15 13 12 11 12 11 13
7 12 11 6 8 8 9 6 8 3 1 3 18 8 5 8 6 11 9 20 20 22 21 20 26 26 30 34 40 40 39 36 35 30 26 22 15 13 16 16 11 11 12 13
8 9 5 6 6 6 6 8 9 9 6 3 5 3 5 7 9 5 5 23 20 20 19 21 21 23 30 34 40 41 37 36 34 31 29 27 22 20 20 14 13 12 14 14
13 9 2 7 5 7 6 10 7 8 7 5 11 6 3 2 8 11 9 12 22 22 22 23 20 31 32 35 39 44 36 37 36 34 32 28 24 25 16 17 16 20 24 20
12 8 2 5 7 7 10 10 8 9 2 5 9 7 4 4 10 4 7 7 10 18 20 22 28 33 28 35 36 42 40 39 39 36 28 26 26 21 20 21 17 20 17 19
14 11 7 4 4 7 8 3 4 7 3 4 4 7 8 15 11 10 9 7 10 17 17 18 20 22 28 34 35 37 39 37 37 34 33 30 22 24 21 18 16 16 18 21
8 1 6 6 1 3 8 3 4 4 3 6 8 7 3 5 9 3 6 3 3 9 18 19 21 25 29 32 35 33 38 34 36 34 32 31 33 24 23 22 21 21 22 18
6 5 4 5 1 3 7 5 5 2 5 6 4 2 6 11 7 6 9 7 6 8 14 19 19 26 29 27 34 32 36 37 39 36 33 32 32 32 27 23 23 23 25 21
7 7 6 5 5 7 6 2 8 5 3 4 2 4 3 6 7 8 8 8 8 10 14 14 9 6 28 28 35 37 40 40 41 40 38 34 33 32 31 26 23 24 23 23
8 7 11 6 5 4 2 5 5 1 2 3 3 2 1 6 8 8 8 6 8 19 18 16 14 29 38 10 34 38 39 37 35 36 37 31 31 30 27 28 26 27 22 17
7 3 5 9 6 6 3 2 1 5 8 3 5 4 3 7 10 6 7 5 8 8 10 13 15 29 35 34 12 10 23 35 37 37 33 34 30 27 25 25 29 21 23 19
6 4 5 11 6 9 4 4 5 6 5 5 3 4 6 8 7 13 7 4 1 12 10 13 20 25 36 32 13 16 13 26 35 36 35 31 32 29 29 28 23 28 26 23
5 1 6 6 8 5 9 10 6 4 3 6 1 2 2 9 13 7 6 7 4 15 12 13 13 14 38 50 36 35 21 6 28 34 34 33 30 31 29 27 28 26 26 29
3 3 5 8 9 8 9 10 8 6 8 4 10 6 8 9 9 8 8 6 6 6 17 15 17 14 25 25 21 31 28 15 35 33 29 25 20 24 31 30 29 29 30 30
2 5 4 5 8 9 6 9 10 9 8 7 6 7 7 5 9 7 7 8 8 7 9 12 12 13 11 16 21 23 14 18 36 36 33 32 24 17 6 6 15 27 31 26
5 3 2 5 7 9 7 10 7 3 7 5 6 6 7 11 19 13 8 3 14 12 10 3 10 11 16 14 15 15 18 25 36 37 33 30 21 21 28 22 18 16 16 18
7 3 2 4 5 6 10 9 7 4 6 7 9 14 15 12 14 17 14 10 8 11 16 16 13 9 16 15 11 13 16 19 25 26 22 14 13 21 18 15 22 21 20 20
10 4 1 3 2 8 10 3 5 4 7 12 13 14 15 10 13 9 7 6 4 3 9 8 19 21 18 20 19 18 17 14 9 10 11 15 21 24 23 24 22 22 24 23
6 5 4 1 2 4 4 4 7 5 4 8 10 10 11 12 7 4 2 3 4 11 15 10 18 15 27 32 35 11 7 16 14 11 16 17 17 18 19 17 13 14 16 14
3 2 5 3 4 6 4 6 5 2 3 7 9 7 8 6 1 3 2 2 4 9 5 8 4 4 8 8 24 28 40 27 8 8 8 13 18 19 18 16 16 15 12 9
6 6 4 3 3 3 5 4 4 4 6 8 8 9 8 8 9 7 7 5 5 7 12 12 7 3 11 10 19 8 4 17 9 2 4 9 14 16 16 13 12 12 11 11
1 5 5 6 5 3 6 6 6 6 4 6 8 7 8 8 7 8 7 7 6 9 12 16 10 10 10 27 34 28 37 32 22 20 9 12 24 18 16 12 14 15 15 16
9 7 2 3 1 6 6 4 6 9 8 7 7 5 5 5 7 8 8 8 8 14 13 19 16 15 5 12 27 37 34 31 18 25 25 39 33 27 19 20 19 22 23 23
4 4 1 1 1 2 2 8 7 7 8 8 7 5 5 7 6 6 7 8 8 12 20 22 19 17 15 15 18 19 24 30 31 36 31 33 36 27 24 23 26 29 28 27
3 3 2 3 2 4 4 6 7 7 5 4 4 6 6 6 6 5 5 6 10 13 20 20 21 20 23 26 26 20 21 31 36 33 31 31 29 26 23 23 27 27 23 21
Wind_Direction
275 275 252 255 268 265 206 143 170 229 258 215 213 71 48 13 10 175 176 183 187 191 195 199 199 198 195 189 182 181 180 181 179 179 184 196 208 215 208 210 211 203 236 216
291 259 259 269 307 7 351 307 220 207 255 124 99 102 170 168 183 192 203 186 190 189 194 193 197 195 189 175 179 183 184 184 187 186 187 188 194 214 206 202 217 207 195 208
241 259 285 354 13 334 288 279 308 249 289 33 116 122 279 196 212 159 211 196 188 189 192 192 187 183 184 175 176 180 181 185 191 189 185 191 195 198 209 222 228 213 211 224
256 270 334 354 299 276 285 329 339 339 21 228 164 105 241 280 293 295 217 190 190 185 187 184 179 177 179 176 179 179 181 185 189 185 184 188 193 196 210 208 203 216 212 220
267 317 42 2 299 4 285 289 302 301 289 329 302 98 294 326 264 269 275 181 188 186 184 179 177 179 176 175 170 179 177 180 178 182 186 190 204 217 209 202 205 197 219 218
271 279 188 205 314 304 280 289 280 258 200 13 271 118 279 203 229 272 268 269 183 177 181 175 176 173 171 170 168 176 179 181 185 189 190 198 207 201 195 198 197 207 196 203
258 241 242 141 273 303 336 311 325 1 356 181 147 85 217 209 236 246 202 176 203 176 172 167 172 173 175 165 169 173 177 181 189 194 201 206 209 206 202 199 218 209 194 200
1 201 141 183 125 10 307 29 124 323 323 255 170 173 277 148 185 330 114 31 68 170 173 169 172 170 174 166 170 171 177 178 188 195 202 211 215 211 206 209 218 216 204 203
1 339 162 127 200 76 306 10 259 320 313 74 80 24 47 158 208 95 55 41 356 312 185 171 169 164 171 163 169 170 175 183 192 196 203 211 219 225 221 219 222 226 209 203
310 351 343 220 207 225 200 276 356 2 5 339 27 45 161 72 73 82 54 15 322 322 176 157 123 102 162 164 169 177 182 185 194 201 205 207 215 222 226 222 223 232 222 202
1 28 304 16 352 128 316 2 353 94 113 207 117 286 106 95 79 87 65 359 6 28 60 90 72 44 13 167 172 177 185 187 189 193 204 208 214 221 224 220 225 230 232 220
15 295 329 298 276 63 56 328 353 114 300 285 140 248 95 31 51 104 101 46 22 88 87 99 80 35 344 310 82 135 188 185 190 193 194 202 212 216 222 226 227 230 229 213
347 345 354 340 358 10 340 54 14 4 31 307 49 257 48 89 108 261 124 145 78 128 116 118 133 165 188 270 187 211 163 199 190 187 193 201 207 209 215 222 227 222 223 219
107 243 202 226 254 319 344 344 6 48 12 293 160 335 140 164 191 201 153 175 151 122 144 142 161 171 182 207 207 206 217 219 204 188 191 195 202 207 213 221 221 217 223 220
159 248 287 316 326 322 310 305 305 307 263 274 287 303 225 220 189 207 171 146 110 116 144 163 172 201 205 222 222 219 236 243 197 194 187 181 172 195 209 211 221 219 216 220
300 281 321 313 310 326 319 321 315 277 266 252 251 292 314 283 153 153 174 150 158 135 107 129 172 187 211 220 223 232 239 220 172 169 160 158 161 158 316 323 207 216 218 219
297 275 347 291 307 323 324 267 275 47 43 43 11 267 30 31 64 33 318 145 43 47 29 42 165 165 190 200 181 178 171 158 163 157 153 157 172 214 215 231 256 207 196 199
253 260 191 245 330 285 246 271 256 130 24 9 54 40 27 73 73 61 53 42 58 56 5 318 350 282 170 159 172 164 147 144 156 160 154 164 194 219 206 206 232 232 232 217
210 202 203 140 241 275 295 310 40 64 55 39 48 37 29 31 64 64 41 73 85 80 238 332 331 339 198 177 174 176 175 178 200 213 222 232 223 209 207 211 223 231 242 232
114 87 111 309 217 275 273 96 56 43 61 26 59 43 35 28 45 326 123 148 142 183 212 240 21 30 58 42 4 35 159 195 221 229 247 217 204 208 208 207 205 204 211 221
159 173 177 251 233 256 351 29 31 74 199 50 56 56 41 40 111 211 310 349 205 183 235 1 69 270 281 351 337 344 345 320 269 254 264 233 218 208 216 218 199 202 203 222
194 165 188 183 218 280 346 19 69 182 63 63 46 44 31 14 4 0 13 308 308 297 309 19 37 158 242 223 198 212 63 299 357 4 299 246 228 214 211 211 225 231 235 247
191 157 190 146 185 120 45 61 51 94 111 84 75 44 34 9 351 349 342 353 344 356 359 360 13 192 211 205 201 199 209 199 205 186 213 286 276 250 235 227 229 239 247 255
351 28 106 81 149 93 42 357 35 59 75 65 61 45 26 16 14 5 347 337 338 343 351 12 28 10 340 236 204 209 224 227 196 193 213 221 254 247 235 241 239 243 248 254
224 6 277 312 33 41 47 88 69 46 39 32 21 25 37 48 16 348 332 322 337 358 348 351 360 3 0 348 257 259 228 215 215 225 229 229 238 243 241 239 242 245 249 251
294 270 176 222 78 112 124 103 76 61 40 351 360 31 25 31 342 302 303 333 6 8 13 10 357 355 350 343 338 307 246 228 230 218 230 236 240 245 246 249 257 256 258 260